User: anonymous   Login
Location: Unspecified
(0.0000°N, 0.0000°E)
Time: 18:46:14
(UTC+00:00)
Language:

USA 224 - Orbit

View from above orbital plane
View from above orbital plane
View from above satellite
View from above satellite

Ground track
Ground track

The orbit data is extracted from the following two-line orbital elements,

1 37348U 11002A   17201.99497910 0.00023500  00000-0  21564-3 0    02
2 37348  97.8999 313.5401 0526356 107.6690 252.3309 14.80084528    05
Epoch (UTC): 20 July 2017 23:52:46
Eccentricity: 0.0526356
inclination: 97.8999°
perigee height: 260 km
apogee height: 998 km
right ascension of ascending node: 313.5401°
argument of perigee: 107.6690°
revolutions per day: 14.80084528
mean anomaly at epoch: 252.3309°
orbit number at epoch: 0

The dashed part of the orbit path shows where the satellite is in the earth's shadow,  

DLR